Weather History for Weaverville, CA

Change the Weather History Date:

Tuesday, May 21, 2013

  Actual Average (KRDD) Record (KRDD)
Temperature  
Mean Temperature 50 °F -  
Max Temperature 60 °F 83 °F 100 °F (2000)
Min Temperature 39 °F 55 °F 44 °F (2010)
Degree Days  
Heating Degree Days 16    
Cooling Degree Days 0    
Moisture  
Dew Point 28 °F    
Average Humidity 43    
Maximum Humidity 61    
Minimum Humidity 19    
Precipitation  
Precipitation 0.00 in 0.07 in 0.71 in (1996)
Month to date precipitation 1.27  
Year to date precipitation 19.59  
Since 1 July precipitation 33.35  
Sea Level Pressure  
Sea Level Pressure 29.97 in    
Wind  
Wind Speed 9 mph (SW)    
Max Wind Speed 21 mph    
Max Gust Speed 33 mph    
Visibility 10 miles    
Events      
T = Trace of Precipitation, MM = Missing Value Source: NWS Daily Summary

Daily Weather History Graph

Daily Weather History Graph

Search for Another Location

Airport:

Trip Planner

Search our weather history database for the weather conditions in past years. The results will help you decide how hot, cold, wet, or windy it might be!

Date:

Astronomy

May. 21, 2013 Rise Set
Actual Time 5:49 AM PDT 8:28 PM PDT
Civil Twilight 5:17 AM PDT 8:59 PM PDT
Nautical Twilight 4:37 AM PDT 9:39 PM PDT
Astronomical Twilight 3:52 AM PDT 10:24 PM PDT
Moon 4:46 PM PDT (5/21) 3:21 AM PDT (5/21)
Length of Visible Light 15h 42m
Length of Day
14h 39m
Waxing Gibbous, 85% of the Moon is Illuminated
May 21
Waxing Gibbous
May 24
Full
May 31
Last Quarter
Jun 8
New
Jun 16
First Quarter

Hourly Weather History & Observations

Time (PDT) Temp. Windchill Dew Point Humidity Pressure Visibility Wind Dir Wind Speed Gust Speed Precip Events Conditions
12:15 AM 60.8 °F - 21.2 °F 22% 29.97 in 10.0 mi South 6.9 mph 17.3 mph N/A   Clear
12:35 AM 59.0 °F - 21.2 °F 23% 29.98 in 10.0 mi SE 3.5 mph - N/A   Clear
12:55 AM 55.4 °F - 32.0 °F 41% 29.96 in 10.0 mi Calm Calm - N/A   Clear
1:15 AM 53.6 °F - 32.0 °F 44% 29.97 in 10.0 mi North 4.6 mph - N/A   Scattered Clouds
1:35 AM 53.6 °F - 30.2 °F 41% 29.96 in 10.0 mi NNE 3.5 mph - N/A   Scattered Clouds
1:55 AM 59.0 °F - 17.6 °F 20% 29.96 in 10.0 mi SSW 8.1 mph - N/A   Mostly Cloudy
2:15 AM 59.0 °F - 17.6 °F 20% 29.95 in 10.0 mi SSW 6.9 mph - N/A   Mostly Cloudy
2:35 AM 59.0 °F - 19.4 °F 22% 29.94 in 10.0 mi SSE 6.9 mph - N/A   Mostly Cloudy
2:55 AM 57.2 °F - 19.4 °F 23% 29.93 in 10.0 mi SSE 4.6 mph - N/A   Mostly Cloudy
3:15 AM 57.2 °F - 17.6 °F 21% 29.93 in 10.0 mi South 4.6 mph - N/A   Scattered Clouds
3:35 AM 57.2 °F - 15.8 °F 20% 29.93 in 10.0 mi WSW 6.9 mph - N/A   Mostly Cloudy
3:55 AM 55.4 °F - 17.6 °F 23% 29.93 in 10.0 mi South 5.8 mph - N/A   Mostly Cloudy
4:15 AM 55.4 °F - 15.8 °F 21% 29.93 in 10.0 mi South 8.1 mph - N/A   Mostly Cloudy
4:35 AM 55.4 °F - 17.6 °F 23% 29.92 in 10.0 mi South 6.9 mph 17.3 mph N/A   Mostly Cloudy
4:55 AM 55.4 °F - 14.0 °F 20% 29.92 in 10.0 mi South 6.9 mph 19.6 mph N/A   Mostly Cloudy
5:15 AM 53.6 °F - 12.2 °F 19% 29.92 in 10.0 mi South 8.1 mph - N/A   Scattered Clouds
5:35 AM 53.6 °F - 15.8 °F 22% 29.92 in 10.0 mi SSW 9.2 mph - N/A   Mostly Cloudy
5:55 AM 53.6 °F - 15.8 °F 22% 29.91 in 10.0 mi South 8.1 mph 17.3 mph N/A   Partly Cloudy
6:15 AM 51.8 °F - 21.2 °F 30% 29.92 in 10.0 mi South 8.1 mph 21.9 mph N/A   Clear
6:35 AM 51.8 °F - 28.4 °F 41% 29.93 in 10.0 mi SSW 8.1 mph 21.9 mph N/A   Clear
6:55 AM 51.8 °F - 32.0 °F 47% 29.93 in 10.0 mi SSW 10.4 mph 21.9 mph N/A   Clear
7:15 AM 50.0 °F - 33.8 °F 54% 29.93 in 10.0 mi South 10.4 mph 21.9 mph N/A   Clear
7:35 AM 50.0 °F - 33.8 °F 54% 29.94 in 10.0 mi SSW 9.2 mph 25.3 mph N/A   Clear
7:55 AM 51.8 °F - 32.0 °F 47% 29.94 in 10.0 mi SSW 10.4 mph 26.5 mph N/A   Clear
8:15 AM 51.8 °F - 32.0 °F 47% 29.96 in 10.0 mi SW 9.2 mph 21.9 mph N/A   Clear
8:35 AM 51.8 °F - 32.0 °F 47% 29.96 in 10.0 mi SSW 13.8 mph 23.0 mph N/A   Clear
8:55 AM 51.8 °F - 30.2 °F 44% 29.97 in 10.0 mi SW 17.3 mph 29.9 mph N/A   Clear
9:15 AM 51.8 °F - 30.2 °F 44% 29.97 in 10.0 mi WSW 15.0 mph 31.1 mph N/A   Clear
9:35 AM 53.6 °F - 30.2 °F 41% 29.98 in 10.0 mi SW 17.3 mph 25.3 mph N/A   Clear
9:55 AM 53.6 °F - 32.0 °F 44% 29.98 in 10.0 mi SW 13.8 mph 31.1 mph N/A   Clear
10:15 AM 53.6 °F - 32.0 °F 44% 29.98 in 10.0 mi SSW 16.1 mph 25.3 mph N/A   Clear
10:35 AM 53.6 °F - 32.0 °F 44% 29.98 in 10.0 mi SW 15.0 mph 29.9 mph N/A   Clear
10:55 AM 53.6 °F - 32.0 °F 44% 29.98 in 10.0 mi SW 15.0 mph 33.4 mph N/A   Clear
11:15 AM 55.4 °F - 33.8 °F 44% 29.98 in 10.0 mi WSW 13.8 mph 27.6 mph N/A   Partly Cloudy
11:35 AM 55.4 °F - 33.8 °F 44% 29.98 in 10.0 mi SW 18.4 mph 32.2 mph N/A   Clear
11:55 AM 55.4 °F - 35.6 °F 47% 29.98 in 10.0 mi SW 16.1 mph 31.1 mph N/A   Partly Cloudy
12:15 PM 55.4 °F - 35.6 °F 47% 29.98 in 10.0 mi SW 17.3 mph 29.9 mph N/A   Partly Cloudy
12:35 PM 57.2 °F - 35.6 °F 44% 29.97 in 10.0 mi SW 13.8 mph 32.2 mph N/A   Partly Cloudy
12:55 PM 57.2 °F - 35.6 °F 44% 29.98 in 10.0 mi WSW 11.5 mph 27.6 mph N/A   Partly Cloudy
1:15 PM 57.2 °F - 37.4 °F 48% 29.98 in 10.0 mi SW 13.8 mph 27.6 mph N/A   Clear
1:35 PM 57.2 °F - 37.4 °F 48% 29.98 in 10.0 mi SSW 15.0 mph 29.9 mph N/A   Clear
1:55 PM 57.2 °F - 35.6 °F 44% 29.98 in 10.0 mi SW 15.0 mph 33.4 mph N/A   Clear
2:15 PM 57.2 °F - 33.8 °F 41% 29.98 in 10.0 mi SW 16.1 mph 29.9 mph N/A   Clear
2:35 PM 57.2 °F - 33.8 °F 41% 29.99 in 10.0 mi SW 15.0 mph 33.4 mph N/A   Clear
2:55 PM 57.2 °F - 33.8 °F 41% 29.99 in 10.0 mi SW 17.3 mph 27.6 mph N/A   Clear
3:15 PM 55.4 °F - 35.6 °F 47% 30.00 in 10.0 mi WSW 16.1 mph 27.6 mph N/A   Clear
3:35 PM 55.4 °F - 32.0 °F 41% 29.99 in 10.0 mi SW 19.6 mph 28.8 mph N/A   Clear
3:55 PM 55.4 °F - 33.8 °F 44% 29.99 in 10.0 mi WSW 15.0 mph 33.4 mph N/A   Clear
4:15 PM 53.6 °F - 33.8 °F 47% 29.98 in 10.0 mi SSW 15.0 mph 32.2 mph N/A   Clear
4:35 PM 53.6 °F - 32.0 °F 44% 29.98 in 10.0 mi SW 16.1 mph 28.8 mph N/A   Clear
4:55 PM 53.6 °F - 32.0 °F 44% 29.98 in 10.0 mi SW 16.1 mph 27.6 mph N/A   Clear
5:15 PM 50.0 °F - 32.0 °F 50% 29.98 in 10.0 mi WSW 16.1 mph 28.8 mph N/A   Clear
5:35 PM 50.0 °F - 32.0 °F 50% 29.98 in 10.0 mi SW 15.0 mph 25.3 mph N/A   Clear
5:55 PM 50.0 °F - 32.0 °F 50% 29.98 in 10.0 mi SSW 15.0 mph 31.1 mph N/A   Clear
6:15 PM 50.0 °F - 32.0 °F 50% 29.98 in 10.0 mi WSW 10.4 mph 25.3 mph N/A   Clear
6:35 PM 50.0 °F - 30.2 °F 47% 29.97 in 10.0 mi SW 20.7 mph 27.6 mph N/A   Clear
6:55 PM 48.2 °F - 30.2 °F 50% 29.98 in 10.0 mi SSW 12.7 mph 29.9 mph N/A   Clear
7:15 PM 46.4 °F 41.1 °F 30.2 °F 53% 29.99 in 10.0 mi SSW 11.5 mph 20.7 mph N/A   Clear
7:35 PM 44.6 °F 38.4 °F 30.2 °F 57% 29.99 in 10.0 mi SW 12.7 mph 28.8 mph N/A   Clear
7:55 PM 44.6 °F 39.2 °F 28.4 °F 53% 30.00 in 10.0 mi SSW 10.4 mph 19.6 mph N/A   Clear
8:15 PM 44.6 °F 39.2 °F 26.6 °F 49% 30.00 in 10.0 mi SSW 10.4 mph 20.7 mph N/A   Clear
8:35 PM 42.8 °F 38.0 °F 26.6 °F 53% 30.00 in 10.0 mi South 8.1 mph - N/A   Clear
8:55 PM 41.0 °F 33.9 °F 26.6 °F 57% 30.01 in 10.0 mi SW 12.7 mph 18.4 mph N/A   Clear
9:15 PM 41.0 °F 38.0 °F 26.6 °F 57% 30.00 in 10.0 mi SSW 4.6 mph 17.3 mph N/A   Clear
9:35 PM 41.0 °F 38.0 °F 26.6 °F 57% 30.01 in 10.0 mi WSW 4.6 mph - N/A   Clear
9:55 PM 41.0 °F 36.4 °F 26.6 °F 57% 30.02 in 10.0 mi West 6.9 mph 19.6 mph N/A   Clear
10:15 PM 41.0 °F 35.8 °F 26.6 °F 57% 30.02 in 10.0 mi SW 8.1 mph - N/A   Clear
10:35 PM 41.0 °F 37.1 °F 26.6 °F 57% 30.03 in 10.0 mi WNW 5.8 mph - N/A   Clear
10:55 PM 41.0 °F - 26.6 °F 57% 30.04 in 10.0 mi Calm Calm - N/A   Clear
11:15 PM 39.2 °F 35.9 °F 26.6 °F 61% 30.04 in 10.0 mi WSW 4.6 mph - N/A   Clear
11:35 PM 39.2 °F 37.0 °F 26.6 °F 61% 30.05 in 10.0 mi South 3.5 mph - N/A   Clear
11:55 PM 39.2 °F 35.9 °F 26.6 °F 61% 30.05 in 10.0 mi WNW 4.6 mph - N/A   Clear